Cloud_Cover
94 36 0 5 5 5 14 1 1 5 51 38 10 100 100 91 83 100 93 48 100 73 98 78 28 100 100 99 85 95 15 96 87 54 17 5 1 0 0 73 100 100 100
95 32 0 5 5 5 5 5 13 34 20 70 5 5 42 100 100 100 100 91 100 100 100 100 92 93 100 96 94 99 93 15 10 100 7 5 5 5 0 0 2 22 100
86 45 18 5 5 5 5 5 10 10 11 12 94 100 100 81 97 100 100 100 100 100 100 100 98 100 99 98 100 100 100 72 53 8 99 41 6 4 8 0 2 5 6
57 48 50 5 5 5 5 10 99 78 66 100 100 100 100 100 100 100 98 97 53 100 99 100 100 100 100 100 100 100 100 100 91 100 99 100 97 19 12 8 4 11 5
54 52 24 16 74 62 5 37 84 50 67 98 100 100 86 50 31 25 16 34 40 57 84 100 100 100 100 100 100 99 100 100 100 100 100 100 100 100 93 20 3 4 5
51 59 30 5 5 8 5 25 8 27 100 100 97 60 100 98 99 100 53 6 29 52 79 99 71 73 87 100 94 100 100 100 100 100 100 100 94 100 100 100 52 21 20
62 58 53 9 10 9 90 85 90 100 44 83 82 88 93 99 66 79 84 42 27 98 21 59 94 37 23 7 34 100 93 93 99 100 100 98 73 100 100 100 100 86 44
80 92 41 60 42 86 72 42 44 24 38 5 28 85 61 82 89 78 17 55 78 20 1 5 4 4 5 9 48 8 82 86 41 86 62 87 63 59 100 100 100 100 99
100 100 100 100 100 5 5 5 5 5 84 93 94 42 5 23 98 43 97 100 89 5 4 37 7 5 4 4 6 38 6 5 42 96 42 62 69 65 100 100 100 100 100
100 100 100 96 59 0 0 5 5 5 7 5 19 62 5 41 51 95 20 5 1 6 99 96 47 0 0 0 0 5 5 5 7 7 40 98 100 98 94 92 100 100 100
100 100 100 91 11 2 2 5 5 5 5 1 5 5 16 81 75 5 3 0 0 1 3 4 3 2 1 0 0 0 1 4 4 6 81 32 39 75 38 66 100 100 100
100 100 100 63 32 0 5 3 0 4 5 5 5 28 90 21 8 5 5 0 0 0 2 5 5 5 5 4 5 2 0 0 0 4 33 51 23 55 36 5 58 84 100
100 100 100 99 99 2 0 0 0 4 5 5 5 5 58 5 5 4 6 2 0 2 1 0 0 0 0 0 0 0 0 0 0 0 0 0 11 64 95 57 92 24 49
100 100 100 100 72 2 0 0 0 5 5 5 5 5 5 3 0 0 0 0 0 0 0 0 0 0 0 0 0 0 0 0 0 0 0 0 0 0 12 100 100 98 84
100 100 100 100 38 3 0 0 0 5 5 5 5 4 3 0 0 0 0 0 0 0 0 0 0 0 4 0 0 0 0 0 0 0 0 0 0 0 54 66 100 98 100
100 100 100 100 64 2 0 0 0 5 5 5 0 1 0 0 0 0 0 0 0 0 0 0 0 2 2 2 0 0 0 0 0 0 0 0 0 0 0 0 0 4 23
100 100 100 100 51 6 0 0 4 5 5 6 2 5 5 5 5 0 3 3 5 0 0 5 11 5 5 5 0 0 0 0 0 0 0 0 0 0 0 0 0 0 0
100 100 100 96 57 22 18 69 8 51 10 5 5 10 50 28 7 5 5 6 5 5 5 5 5 9 5 5 4 5 0 0 0 0 2 0 0 0 0 0 0 0 0
100 100 100 75 99 50 8 84 54 34 67 23 15 96 100 86 40 6 7 19 5 10 6 5 5 5 5 28 7 5 4 0 0 0 0 0 0 0 0 0 0 0 0
100 100 100 85 72 57 46 6 6 26 100 100 100 100 93 81 37 99 91 98 67 64 33 6 11 16 5 5 6 0 0 0 0 0 0 0 0 0 0 0 0 0 0
100 100 100 84 85 100 27 28 5 6 32 51 39 72 100 81 99 87 96 84 95 100 92 11 8 5 5 5 5 0 0 0 0 0 0 0 0 0 0 0 0 0 0
94 100 100 99 96 97 100 96 90 33 100 100 29 14 51 100 99 100 12 95 98 100 60 10 13 5 5 5 4 2 6 0 0 0 0 0 0 0 0 0 0 0 0
100 100 98 100 95 100 100 100 100 100 100 100 100 39 49 99 54 100 100 100 74 100 52 5 5 5 5 21 0 4 4 0 0 0 0 0 0 0 0 0 0 0 0
100 100 65 100 100 100 100 100 100 100 100 100 100 100 91 37 70 100 100 100 87 93 67 47 5 54 36 1 5 5 1 0 0 0 0 0 0 0 0 0 0 0 0
100 100 84 100 100 89 100 100 100 100 100 100 100 100 100 100 100 100 100 65 86 76 75 48 64 8 5 5 5 5 5 0 0 0 0 0 0 0 0 0 0 0 0
100 100 100 100 100 100 98 100 100 100 100 100 100 100 100 100 100 100 99 92 100 52 54 64 6 6 9 68 98 5 4 0 0 0 0 0 0 0 0 0 0 0 5